| time (UTC) | temp F | wind direction | speed MPH | gust MPH | rain 1hr in | rain 24hr in | rain mn in | humidity % | barometer mb |
| 20260504050732 | 39 | 235 | 0.0 | 0.0 | 0.00 | 0.00 | 0.00 | 84 | 1009.8 |
| 20260504045732 | 39 | 235 | 0.0 | 1.0 | 0.00 | 0.00 | 0.00 | 83 | 1009.8 |
| 20260504044732 | 39 | 235 | 0.0 | 0.0 | 0.00 | 0.00 | 0.00 | 82 | 1009.7 |
| 20260504044208 | 39 | 235 | 0.0 | 1.0 | 0.00 | 0.00 | 0.00 | 80 | 1009.8 |
| 20260504042734 | 40 | 235 | 0.0 | 2.0 | 0.00 | 0.00 | 0.00 | 79 | 1009.8 |
| 20260504041732 | 40 | 235 | 0.0 | 1.0 | 0.00 | 0.00 | 0.00 | 79 | 1009.7 |
| 20260504040730 | 40 | 235 | 0.0 | 1.0 | 0.00 | 0.00 | 0.00 | 80 | 1009.7 |
| 20260504035730 | 40 | 235 | 0.0 | 1.0 | 0.00 | 0.00 | 0.00 | 79 | 1009.6 |
| 20260504034728 | 41 | 235 | 0.0 | 1.0 | 0.00 | 0.00 | 0.00 | 79 | 1009.7 |
| 20260504033728 | 41 | 235 | 0.0 | 0.0 | 0.00 | 0.00 | 0.00 | 78 | 1009.6 |
| 20260504033207 | 41 | 235 | 0.0 | 0.0 | 0.00 | 0.00 | 0.00 | 78 | 1009.5 |
| 20260504032213 | 42 | 235 | 0.0 | 1.0 | 0.00 | 0.00 | 0.00 | 77 | 1009.4 |
| 20260504030728 | 42 | 235 | 0.0 | 1.0 | 0.00 | 0.00 | 0.00 | 77 | 1009.4 |
| 20260504025728 | 42 | 235 | 0.0 | 2.0 | 0.00 | 0.00 | 0.00 | 76 | 1009.4 |
| 20260504024729 | 43 | 235 | 0.0 | 1.0 | 0.00 | 0.00 | 0.00 | 76 | 1009.4 |
| 20260504024215 | 43 | 235 | 0.0 | 2.0 | 0.00 | 0.00 | 0.00 | 74 | 1009.5 |
| 20260504022727 | 43 | 235 | 0.0 | 1.0 | 0.00 | 0.00 | 0.00 | 72 | 1009.4 |
| 20260504021726 | 44 | 235 | 0.0 | 1.0 | 0.00 | 0.00 | 0.00 | 72 | 1009.3 |
| 20260504020727 | 44 | 235 | 0.0 | 0.0 | 0.00 | 0.00 | 0.00 | 71 | 1009.2 |
| 20260504015725 | 45 | 235 | 0.0 | 2.0 | 0.00 | 0.00 | 0.00 | 68 | 1009.3 |
| 20260504015635 | 46 | 235 | 1.0 | 2.0 | 0.00 | 0.00 | 0.00 | 68 | 1009.2 |
| 20260504013719 | 46 | 235 | 1.0 | 2.0 | 0.00 | 0.00 | 0.00 | 64 | 1009.0 |
| 20260504012719 | 47 | 235 | 0.0 | 1.0 | 0.00 | 0.00 | 0.00 | 63 | 1009.0 |
| 20260504011719 | 47 | 235 | 0.0 | 0.0 | 0.00 | 0.00 | 0.00 | 62 | 1008.9 |
| 20260504010719 | 48 | 235 | 0.0 | 0.0 | 0.00 | 0.00 | 0.00 | 64 | 1008.8 |
| 20260504005718 | 48 | 235 | 0.0 | 0.0 | 0.00 | 0.00 | 0.00 | 63 | 1008.6 |
| 20260504004719 | 49 | 235 | 0.0 | 1.0 | 0.00 | 0.00 | 0.00 | 60 | 1008.4 |
| 20260504003719 | 49 | 235 | 0.0 | 1.0 | 0.00 | 0.00 | 0.00 | 56 | 1008.2 |
| 20260504002721 | 50 | 235 | 0.0 | 1.0 | 0.00 | 0.00 | 0.00 | 53 | 1008.1 |
| 20260504001715 | 51 | 235 | 0.0 | 1.0 | 0.00 | 0.00 | 0.00 | 51 | 1008.0 |
| 20260504001150 | 51 | 235 | 1.0 | 2.0 | 0.00 | 0.00 | 0.00 | 49 | 1007.8 |
| 20260503235712 | 52 | 235 | 1.0 | 2.0 | 0.00 | 0.00 | 0.00 | 46 | 1007.7 |
| 20260503234715 | 53 | 235 | 1.0 | 2.0 | 0.00 | 0.00 | 0.00 | 44 | 1007.6 |
| 20260503233712 | 53 | 235 | 1.0 | 2.0 | 0.00 | 0.00 | 0.00 | 42 | 1007.5 |
| 20260503232714 | 53 | 235 | 1.0 | 2.0 | 0.00 | 0.00 | 0.00 | 43 | 1007.4 |
| 20260503231712 | 54 | 235 | 1.0 | 3.0 | 0.00 | 0.00 | 0.00 | 43 | 1007.3 |
| 20260503230713 | 54 | 234 | 1.0 | 2.0 | 0.00 | 0.00 | 0.00 | 44 | 1007.3 |
| 20260503225714 | 54 | 328 | 1.0 | 3.0 | 0.00 | 0.00 | 0.00 | 40 | 1007.2 |
| 20260503224708 | 54 | 281 | 1.0 | 3.0 | 0.00 | 0.00 | 0.00 | 42 | 1007.3 |
| 20260503223708 | 54 | 284 | 2.0 | 4.0 | 0.00 | 0.00 | 0.00 | 43 | 1007.2 |
| 20260503222706 | 54 | 214 | 2.0 | 8.0 | 0.00 | 0.00 | 0.00 | 41 | 1007.2 |
| 20260503221707 | 55 | 273 | 2.0 | 6.0 | 0.00 | 0.00 | 0.00 | 40 | 1007.1 |
| 20260503220706 | 55 | 317 | 2.0 | 6.0 | 0.00 | 0.00 | 0.00 | 40 | 1007.1 |
| 20260503215707 | 54 | 227 | 2.0 | 9.0 | 0.00 | 0.00 | 0.00 | 41 | 1007.1 |
| 20260503214709 | 54 | 0 | 1.0 | 6.0 | 0.00 | 0.00 | 0.00 | 42 | 1007.1 |
| 20260503213706 | 54 | 331 | 2.0 | 4.0 | 0.00 | 0.00 | 0.00 | 42 | 1007.2 |
| 20260503212707 | 54 | 347 | 3.0 | 8.0 | 0.00 | 0.00 | 0.00 | 41 | 1007.1 |
| 20260503211701 | 54 | 28 | 2.0 | 6.0 | 0.00 | 0.00 | 0.00 | 43 | 1007.2 |
| 20260503210701 | 53 | 26 | 3.0 | 11.0 | 0.00 | 0.00 | 0.00 | 42 | 1007.2 |
| 20260503205701 | 53 | 62 | 2.0 | 5.0 | 0.00 | 0.00 | 0.00 | 43 | 1007.0 |
| 20260503204701 | 52 | 5 | 2.0 | 10.0 | 0.00 | 0.00 | 0.00 | 43 | 1007.2 |
| 20260503203659 | 52 | 63 | 3.0 | 9.0 | 0.00 | 0.00 | 0.00 | 43 | 1007.3 |
| 20260503202701 | 53 | 0 | 3.0 | 8.0 | 0.00 | 0.00 | 0.00 | 43 | 1007.3 |
| 20260503202150 | 53 | 26 | 4.0 | 10.0 | 0.00 | 0.00 | 0.00 | 42 | 1007.2 |
| 20260503200659 | 52 | 355 | 3.0 | 8.0 | 0.00 | 0.00 | 0.00 | 45 | 1007.2 |
| 20260503195658 | 52 | 340 | 3.0 | 8.0 | 0.00 | 0.00 | 0.00 | 42 | 1007.2 |
| 20260503194657 | 53 | 323 | 3.0 | 11.0 | 0.00 | 0.00 | 0.00 | 43 | 1007.2 |
| 20260503193658 | 54 | 325 | 3.0 | 7.0 | 0.00 | 0.00 | 0.00 | 42 | 1007.2 |
| 20260503192657 | 54 | 270 | 3.0 | 11.0 | 0.00 | 0.00 | 0.00 | 43 | 1007.2 |
| 20260503191656 | 54 | 309 | 2.0 | 5.0 | 0.00 | 0.00 | 0.00 | 42 | 1007.1 |
| 20260503190655 | 54 | 321 | 3.0 | 8.0 | 0.00 | 0.00 | 0.00 | 41 | 1007.1 |
| 20260503190139 | 54 | 282 | 3.0 | 9.0 | 0.00 | 0.00 | 0.00 | 42 | 1006.9 |
| 20260503184657 | 55 | 301 | 3.0 | 8.0 | 0.00 | 0.00 | 0.00 | 42 | 1007.1 |
| 20260503183659 | 54 | 180 | 2.0 | 11.0 | 0.00 | 0.00 | 0.00 | 44 | 1007.1 |
| 20260503182657 | 53 | 355 | 3.0 | 10.0 | 0.00 | 0.00 | 0.00 | 42 | 1007.1 |
| 20260503181657 | 54 | 264 | 3.0 | 8.0 | 0.00 | 0.00 | 0.00 | 44 | 1007.0 |
| 20260503180657 | 53 | 14 | 3.0 | 9.0 | 0.00 | 0.00 | 0.00 | 44 | 1007.0 |
| 20260503180131 | 53 | 311 | 3.0 | 13.0 | 0.00 | 0.00 | 0.00 | 42 | 1006.9 |
| 20260503174656 | 53 | 304 | 4.0 | 9.0 | 0.00 | 0.00 | 0.00 | 42 | 1007.0 |
| 20260503173656 | 53 | 314 | 3.0 | 9.0 | 0.00 | 0.00 | 0.00 | 41 | 1007.1 |
| 20260503173128 | 52 | 350 | 3.0 | 9.0 | 0.00 | 0.00 | 0.00 | 44 | 1007.1 |
| 20260503172138 | 51 | 290 | 3.0 | 7.0 | 0.00 | 0.01 | 0.00 | 49 | 1007.2 |
| 20260503170653 | 51 | 265 | 2.0 | 7.0 | 0.00 | 0.01 | 0.00 | 50 | 1007.4 |
| 20260503150644 | 51 | 336 | 4.0 | 10.0 | 0.00 | 0.01 | 0.00 | 53 | 1007.1 |
| 20260503131113 | 46 | 313 | 3.0 | 7.0 | 0.00 | 0.01 | 0.00 | 69 | 1007.7 |
| 20260503110626 | 42 | 185 | 2.0 | 6.0 | 0.00 | 0.02 | 0.00 | 74 | 1007.2 |
| 20260503110550 | 41 | 35 | 2.0 | 5.0 | 0.00 | 0.02 | 0.00 | 75 | 1007.5 |
| 20260503081620 | 42 | 330 | 2.0 | 6.0 | 0.00 | 0.04 | 0.00 | 68 | 1007.8 |
| 20260503080620 | 42 | 327 | 2.0 | 4.0 | 0.00 | 0.04 | 0.00 | 67 | 1007.8 |
| 20260503072621 | 43 | 315 | 2.0 | 4.0 | 0.00 | 0.04 | 0.00 | 65 | 1008.0 |
| 20260503071619 | 43 | 346 | 2.0 | 4.0 | 0.00 | 0.05 | 0.00 | 65 | 1008.1 |
| 20260503070619 | 44 | 46 | 1.0 | 4.0 | 0.00 | 0.05 | 0.00 | 64 | 1008.1 |